Location: Newark
(43.6583°N, 1.6617°E)
Time: 15:13:39
(UTC+00:00)

Tiros 1 - Pass Details

Date: 02 September 2019
Orbit: 630 x 664 km, 48.4° (Epoch: 23 September)

Event Time Altitude Azimuth Distance (km) Brightness Sun altitude
Rises 02:20:06 0° 290° (WNW) 2,923 - -28.5°
Reaches altitude 10° 02:22:38 10° 279° (W) 2,015 - -28.2°
Maximum altitude 02:26:37 29° 220° (SW) 1,175 - -27.7°
Drops below altitude 10° 02:30:36 10° 161° (SSE) 2,021 - -27.2°
Sets 02:33:10 0° 150° (SSE) 2,932 - -26.9°
